PEGASUS (42784 NORAD) Tracking and Keplerian Element Data

This shows tracking and keplerian element data for the satellite.

Feedback or suggestion? Click here.




ElementValue
Catalog42784
NamePEGASUS
Epoch Orbit30097
Epoch Day325.09198165
Epoch Year2022
RAAN2.1484
Inclination97.1814
Eccentricity0.0010831
Argument of Perigee121.644
Mean Anonmoly238.5861
Mean Motion15.32798653
Decay Rate0.00011878
L11 42784U 17036V 22325.09198165 .00011878 00000+0 37652-3 0 9995
L22 42784 97.1814 2.1484 0010831 121.6440 238.5861 15.32798653300978



Live tracking and technical data element details for PEGASUS (NORAD 42784). PEGASUS can be tracked NOW for your location showing map with azimuth and elevation plus other details from your city location.







IsCatalogInMostPopularTable: catalog: 42784, numindb: 487
Update: records affected: 1



GetName: 42784 PEGASUS

Hit Count: updated at: Mon, 28 Nov 2022 04:27:03 GMT